Regional Weather Roundup
Issued by NWS

Home | Current Version | Previous Version | Text Only | Print | Product List | Glossary Off
Versions: 1 2 3 4 5 6 7 8 9 10 11 12 13 14 15 16 17 18 19 20 21 22 23 24 25 26 27 28 29 30 31 32 33 34 35 36 37 38 39 40 41 42 43 44 45 46 47 48 49 50

000
ASUS43 KIND 192209
RWRIN

WEATHER ROUNDUP FOR INDIANA
NATIONAL WEATHER SERVICE INDIANAPOLIS IN
600 PM EDT THU APR 19 2018

NOTE: "FAIR" INDICATES FEW OR NO CLOUDS BELOW 12,000 FEET WITH NO
SIGNIFICANT WEATHER AND/OR OBSTRUCTIONS TO VISIBILITY.

* - STATION DOES NOT REPORT WEATHER SUCH AS PRECIPITATION OR FOG.

+ - STATION NOT QUALITY CONTROLLED BY THE NATIONAL WEATHER SERVICE.
    USE DATA WITH CAUTION...ESPECIALLY DEWPOINT AND RELATIVE
    HUMIDITY OBSERVATIONS.

INZ001>003-010>013-019-020-192300-
NORTHWEST INDIANA

CITY           SKY/WX    TMP DP  RH WIND       PRES   REMARKS
GARY /AIRPORT/ SUNNY     45  21  39 N13       30.41S
KNOX *+        FAIR      45  28  53 NW18      30.36R
LA PORTE +     FAIR      42  26  54 NW21G26   30.36S
MICHIGAN CITY+ FAIR      41  28  60 N17       30.39S
MONTICELLO +   FAIR      51  22  31 N21       30.34R
RENSSELAER +   FAIR      50   0  12 N16G23    30.37S
VALPARAISO     FAIR      46  20  35 N17G24    30.38S

$$

LMZ046-743>745-192300-
SOUTHERN LAKE MICHIGAN

STATION/POSITION TIME  TEMP    WIND        PRES    WAVE
                       AIR SEA DIR/SP/G            HT
                 (UTC) (F)     (DEG/KT/KT) (MB)    (FT)
BURNS HARBOR     2140   39      20/ 10/ 14 1029.5F
MICHIGAN CITY    2140   40     340/ 12/ 14   N/A

$$

INZ004-005-014>016-021>024-192300-
NORTH CENTRAL INDIANA

CITY           SKY/WX    TMP DP  RH WIND       PRES   REMARKS
ELKHART        FAIR      45  30  57 NW14G21   30.32R
GOSHEN         FAIR      48  32  53 NW18G28   30.30R
LOGANSPORT +   FAIR      50  27  40 NW16G23   30.33R
PERU/GRISSOM   FAIR      53  26  36 NW21      30.30R
ROCHESTER +    FAIR      52  21  30 NW16G28   30.32R
SOUTH BEND     FAIR      41  29  62 NW22      30.35R
WARSAW +       FAIR      46  32  57 N16G25    30.30R

$$

INZ006>009-017-018-025>027-192300-
NORTHEAST INDIANA

CITY           SKY/WX    TMP DP  RH WIND       PRES   REMARKS
ANGOLA *+      FAIR      50  32  50 NW17      30.24R
AUBURN +       FAIR      52  32  46 NW15G22   30.26R
FORT WAYNE     FAIR      53  31  42 NW14      30.26R
HUNTINGTON +   FAIR      51  28  41 NW12G18   30.28R
KENDALLVILLE + FAIR      50  26  38 NW10G18   30.27R

$$

INZ028-029-035-036-043>045-051>053-192300-
WEST CENTRAL INDIANA

CITY           SKY/WX    TMP DP  RH WIND       PRES   REMARKS
CRAWFORDSVL +  FAIR      52  28  39 NW13G21   30.33S
GREENCASTLE +  FAIR      54  27  35 N10G18    30.33S
LAFAYETTE      FAIR      53  26  35 N15G23    30.34R
TERRE HAUTE    FAIR      56  32  40 N12       30.34S

$$

INZ030>032-037>040-046>048-054>057-064-065-192300-
CENTRAL INDIANA

CITY           SKY/WX    TMP DP  RH WIND       PRES   REMARKS
COLUMBUS       SUNNY     54 N/A N/A NW14G21   30.30S
FRANKFORT +    FAIR      56  25  30 N13G20    30.34R
GREENWOOD *+   FAIR      54  29  38 N10G16    30.30S
INDIANAPOLIS   FAIR      55  27  34 N17       30.31S
-EAGLE CREEK   FAIR      55  28  35 NW17G24   30.30S
KOKOMO +       FAIR      53  28  38 NW21      30.31R
MARION +       FAIR      53  26  35 NW16G24   30.29R
MT COMFORT *+  FAIR      54  34  47 NW20      30.29S
SHELBYVILLE    FAIR      56  29  35 NW14G22   30.28S
ZIONSVILLE +   FAIR      52  29  40 N14G24    30.31S

$$

INZ033-034-041-042-049-050-058-059-192300-
EAST CENTRAL INDIANA

CITY           SKY/WX    TMP DP  RH WIND       PRES   REMARKS
MUNCIE         FAIR      56  27  32 NW17      30.27R
RICHMOND +     FAIR      52  28  40 NW13      30.26S

$$

INZ060-061-067>069-081>083-085>088-192300-
SOUTHWEST INDIANA

CITY           SKY/WX    TMP DP  RH WIND       PRES   REMARKS
EVANSVILLE     FAIR      54  33  45 N10G20    30.35F
HUNTINGBURG +  FAIR      53  32  44 N8        30.34R
WASHINGTON +   FAIR      55  28  36 N16       30.33S

$$

INZ062-063-066-070>080-084-089>092-192300-
SOUTH CENTRAL AND SOUTHEAST INDIANA

CITY           SKY/WX    TMP DP  RH WIND       PRES   REMARKS
BATESVILLE +   SUNNY     52  27  37 MISG      30.28S
BEDFORD +      FAIR      54  23  30 N7G16     30.31S
BLOOMINGTON    FAIR      56  31  38 N14G20    30.31S
FRENCH LICK *+ FAIR      54  19  26 N7        30.32R
MADISON *+     FAIR      54  27  35 N9        30.31S
NORTH VERNON + FAIR      52  28  40 NW9G17    30.30S
SEYMOUR +      FAIR      57  30  35 N9        30.31R

$$




USA.gov is the U.S. government's official web portal to all federal, state and local government web resources and services.